TimeCDT,TemperatureF,Dew PointF,Humidity,Sea Level PressureIn,VisibilityMPH,Wind Direction,Wind SpeedMPH,Gust SpeedMPH,PrecipitationIn,Events,Conditions,WindDirDegrees,DateUTC
12:55 AM,49.8,34.5,56,30.28,10.0,North,8.1,-,N/A,,Scattered Clouds,10,2012-10-05 05:55:00
1:55 AM,50.4,33.6,53,30.30,10.0,North,8.1,-,N/A,,Overcast,10,2012-10-05 06:55:00
2:55 AM,50.0,32.9,52,30.29,10.0,NNE,10.4,-,N/A,,Overcast,30,2012-10-05 07:55:00
3:55 AM,49.3,32.7,53,30.29,10.0,NNE,5.8,-,N/A,,Overcast,20,2012-10-05 08:55:00
4:55 AM,48.7,32.7,54,30.29,10.0,NNE,8.1,-,N/A,,Overcast,20,2012-10-05 09:55:00
5:55 AM,48.2,32.5,55,30.30,10.0,NNE,6.9,-,N/A,,Overcast,20,2012-10-05 10:55:00
6:55 AM,47.5,32.5,56,30.30,10.0,NE,9.2,-,N/A,,Overcast,40,2012-10-05 11:55:00
7:55 AM,47.1,32.9,58,30.29,10.0,NE,9.2,-,N/A,,Overcast,40,2012-10-05 12:55:00
8:55 AM,46.9,30.2,52,30.31,10.0,NNE,9.2,-,N/A,,Overcast,30,2012-10-05 13:55:00
9:55 AM,48.0,30.2,50,30.31,10.0,NE,11.5,-,N/A,,Overcast,50,2012-10-05 14:55:00
10:55 AM,48.6,29.1,47,30.33,10.0,NE,11.5,-,N/A,,Mostly Cloudy,40,2012-10-05 15:55:00
11:55 AM,50.9,28.6,42,30.35,10.0,NNE,16.1,23.0,N/A,,Overcast,20,2012-10-05 16:55:00
12:55 PM,49.5,30.4,48,30.35,10.0,North,15.0,24.2,N/A,,Overcast,10,2012-10-05 17:55:00
1:55 PM,48.6,31.6,52,30.33,10.0,North,11.5,-,N/A,,Mostly Cloudy,350,2012-10-05 18:55:00
2:55 PM,46.4,32.9,59,30.32,10.0,NNE,11.5,-,N/A,,Scattered Clouds,30,2012-10-05 19:55:00
3:55 PM,48.9,32.2,52,30.30,10.0,NE,11.5,-,N/A,,Partly Cloudy,50,2012-10-05 20:55:00
4:55 PM,48.9,32.0,52,30.29,10.0,NE,8.1,-,N/A,,Partly Cloudy,40,2012-10-05 21:55:00
5:55 PM,50.5,34.2,53,30.29,10.0,NNE,5.8,-,N/A,,Partly Cloudy,30,2012-10-05 22:55:00
6:55 PM,47.8,31.1,52,30.30,10.0,NNW,3.5,-,N/A,,Scattered Clouds,340,2012-10-05 23:55:00
7:55 PM,45.3,31.6,59,30.31,8.0,Calm,Calm,-,N/A,,Clear,0,2012-10-06 00:55:00
8:55 PM,41.7,33.1,71,30.33,7.0,Calm,Calm,-,N/A,,Scattered Clouds,0,2012-10-06 01:55:00
9:43 PM,39.2,33.8,81,30.33,2.5,Calm,Calm,-,N/A,,Haze,0,2012-10-06 02:43:00
9:46 PM,39.2,33.8,81,30.34,3.0,Calm,Calm,-,N/A,,Haze,0,2012-10-06 02:46:00
9:55 PM,39.9,34.3,80,30.34,2.5,Calm,Calm,-,N/A,,Haze,0,2012-10-06 02:55:00
10:02 PM,41.0,35.6,81,30.34,3.0,Calm,Calm,-,N/A,,Haze,0,2012-10-06 03:02:00
10:55 PM,41.2,34.0,76,30.35,8.0,Calm,Calm,-,N/A,,Overcast,0,2012-10-06 03:55:00
11:31 PM,41.0,35.6,81,30.34,2.5,Calm,Calm,-,N/A,,Haze,0,2012-10-06 04:31:00
11:34 PM,41.0,35.6,81,30.34,2.0,Calm,Calm,-,N/A,,Haze,0,2012-10-06 04:34:00
11:39 PM,39.2,35.6,87,30.34,1.8,Calm,Calm,-,N/A,,Haze,0,2012-10-06 04:39:00
11:44 PM,39.2,35.6,87,30.34,1.5,Calm,Calm,-,N/A,,Overcast,0,2012-10-06 04:44:00
11:50 PM,39.2,35.6,87,30.34,1.2,Calm,Calm,-,N/A,,Overcast,0,2012-10-06 04:50:00
11:55 PM,39.2,36.7,91,30.34,1.2,Calm,Calm,-,N/A,,Overcast,0,2012-10-06 04:55:00